Location: Banff
(51.1667°N, 115.5667°W)
Time: 08:25:16
(UTC+00:00)

Tiangong - Visible Passes

Search period start: 28 November 2022 00:00
Search period end: 08 December 2022 00:00
Orbit: 385 x 394 km, 41.5° (Epoch: 28 November)

Date Brightness Start Highest point End Pass type
(mag) Time Alt. Az. Time Alt. Az. Time Alt. Az.
03 Dec 0.6 02:02:27 10° SSW 02:03:30 13° S 02:03:30 13° S visible
04 Dec 0.6 01:05:13 10° S 01:06:21 11° SSE 01:07:30 10° SE visible
05 Dec 0.3 01:42:51 10° SSW 01:44:45 15° S 01:45:19 14° SSE visible
06 Dec 0.5 00:45:16 10° SSW 00:46:59 14° S 00:48:42 10° SE visible
06 Dec 0.8 02:21:30 10° SW 02:22:25 13° SSW 02:22:25 13° SSW visible
07 Dec 0.5 01:23:32 10° SW 01:25:24 15° S 01:27:14 10° SSE visible
